TimeMDT,TemperatureF,Dew PointF,Humidity,Sea Level PressureIn,VisibilityMPH,Wind Direction,Wind SpeedMPH,Gust SpeedMPH,PrecipitationIn,Events,Conditions,WindDirDegrees,DateUTC
12:15 AM,59.7,31.8,35,29.92,10.0,South,10.4,17.3,N/A,,Clear,170,2013-09-26 06:15:00
12:35 AM,59.0,31.5,35,29.92,10.0,South,13.8,17.3,N/A,,Clear,170,2013-09-26 06:35:00
12:55 AM,59.9,29.3,31,29.92,10.0,South,11.5,19.6,N/A,,Clear,170,2013-09-26 06:55:00
1:15 AM,59.9,28.0,30,29.93,10.0,SSE,5.8,18.4,N/A,,Clear,160,2013-09-26 07:15:00
1:35 AM,60.1,26.8,28,29.93,10.0,South,10.4,17.3,N/A,,Clear,170,2013-09-26 07:35:00
1:55 AM,59.4,26.4,28,29.94,10.0,SSE,8.1,-,N/A,,Clear,160,2013-09-26 07:55:00
2:15 AM,59.7,25.3,27,29.94,10.0,South,10.4,-,N/A,,Clear,170,2013-09-26 08:15:00
2:35 AM,59.7,24.1,26,29.94,10.0,SE,8.1,-,N/A,,Clear,140,2013-09-26 08:35:00
2:55 AM,59.7,22.5,24,29.94,10.0,South,11.5,20.7,N/A,,Clear,170,2013-09-26 08:55:00
3:15 AM,59.2,22.6,25,29.95,10.0,SSE,8.1,-,N/A,,Clear,160,2013-09-26 09:15:00
3:35 AM,57.2,23.7,28,29.95,10.0,SSE,10.4,-,N/A,,Clear,160,2013-09-26 09:35:00
3:55 AM,57.6,22.8,26,29.95,10.0,SSE,9.2,-,N/A,,Clear,160,2013-09-26 09:55:00
4:15 AM,57.0,22.3,26,29.95,10.0,SSW,9.2,-,N/A,,Clear,200,2013-09-26 10:15:00
4:35 AM,56.3,22.5,27,29.96,10.0,SSE,5.8,-,N/A,,Clear,160,2013-09-26 10:35:00
4:55 AM,56.5,22.1,26,29.96,10.0,South,6.9,-,N/A,,Clear,180,2013-09-26 10:55:00
5:15 AM,53.4,23.0,31,29.96,10.0,SW,8.1,-,N/A,,Clear,230,2013-09-26 11:15:00
5:35 AM,55.6,21.4,26,29.97,10.0,SW,10.4,-,N/A,,Clear,220,2013-09-26 11:35:00
5:55 AM,56.3,21.2,26,29.97,10.0,SW,10.4,18.4,N/A,,Clear,220,2013-09-26 11:55:00
6:15 AM,55.4,21.7,27,29.97,10.0,SW,9.2,16.1,N/A,,Clear,220,2013-09-26 12:15:00
6:35 AM,54.1,22.3,29,29.98,10.0,SW,11.5,-,N/A,,Clear,220,2013-09-26 12:35:00
6:55 AM,56.5,19.9,24,29.98,10.0,SW,11.5,21.9,N/A,,Clear,220,2013-09-26 12:55:00
7:15 AM,56.3,19.6,24,29.98,10.0,SSW,11.5,19.6,N/A,,Clear,200,2013-09-26 13:15:00
7:35 AM,57.0,20.3,24,29.98,10.0,SSW,13.8,20.7,N/A,,Clear,210,2013-09-26 13:35:00
7:55 AM,58.6,20.3,23,29.98,10.0,SW,12.7,23.0,N/A,,Clear,220,2013-09-26 13:55:00
8:15 AM,58.8,21.7,24,29.98,10.0,SW,12.7,-,N/A,,Clear,230,2013-09-26 14:15:00
8:35 AM,60.3,20.7,22,29.98,10.0,SW,9.2,18.4,N/A,,Clear,230,2013-09-26 14:35:00
8:55 AM,61.9,21.4,21,29.99,10.0,SW,8.1,-,N/A,,Clear,220,2013-09-26 14:55:00
9:15 AM,62.6,22.1,21,29.99,10.0,SW,4.6,-,N/A,,Clear,220,2013-09-26 15:15:00
9:35 AM,62.8,21.4,20,29.99,10.0,SE,8.1,16.1,N/A,,Clear,130,2013-09-26 15:35:00
9:55 AM,64.2,20.5,19,29.99,10.0,SSE,10.4,-,N/A,,Clear,150,2013-09-26 15:55:00
10:15 AM,64.6,21.0,19,29.99,10.0,SSE,3.5,19.6,N/A,,Clear,150,2013-09-26 16:15:00
10:35 AM,65.3,22.6,20,29.99,10.0,SSE,15.0,24.2,N/A,,Clear,160,2013-09-26 16:35:00
10:55 AM,65.3,22.3,19,29.98,10.0,SE,18.4,31.1,N/A,,Clear,140,2013-09-26 16:55:00
11:15 AM,65.5,23.0,20,29.99,10.0,SSE,15.0,26.5,N/A,,Clear,150,2013-09-26 17:15:00
11:35 AM,66.4,22.6,19,29.98,10.0,SSE,12.7,27.6,N/A,,Clear,160,2013-09-26 17:35:00
11:55 AM,67.1,22.1,18,29.98,10.0,SSE,17.3,25.3,N/A,,Clear,160,2013-09-26 17:55:00
12:15 PM,68.2,21.4,17,29.97,10.0,South,16.1,24.2,N/A,,Clear,170,2013-09-26 18:15:00
12:35 PM,68.9,20.5,16,29.97,10.0,South,19.6,27.6,N/A,,Clear,170,2013-09-26 18:35:00
12:55 PM,69.3,18.3,14,29.96,10.0,South,15.0,25.3,N/A,,Clear,190,2013-09-26 18:55:00
1:15 PM,70.3,17.4,13,29.95,10.0,SSE,10.4,21.9,N/A,,Clear,160,2013-09-26 19:15:00
1:35 PM,71.6,17.1,13,29.94,10.0,SSE,13.8,27.6,N/A,,Clear,150,2013-09-26 19:35:00
1:55 PM,71.8,16.2,12,29.93,10.0,SE,16.1,25.3,N/A,,Clear,140,2013-09-26 19:55:00
2:15 PM,72.1,14.4,11,29.92,10.0,SSE,16.1,31.1,N/A,,Clear,150,2013-09-26 20:15:00
2:35 PM,73.4,15.1,11,29.91,10.0,SE,16.1,28.8,N/A,,Clear,140,2013-09-26 20:35:00
2:55 PM,72.5,15.3,11,29.90,10.0,SSE,13.8,34.5,N/A,,Clear,150,2013-09-26 20:55:00
3:15 PM,72.7,15.1,11,29.90,10.0,SSE,12.7,27.6,N/A,,Clear,150,2013-09-26 21:15:00
3:35 PM,73.0,14.7,11,29.90,10.0,South,11.5,27.6,N/A,,Clear,170,2013-09-26 21:35:00
3:55 PM,73.2,13.3,10,29.90,10.0,South,24.2,36.8,N/A,,Clear,190,2013-09-26 21:55:00
4:15 PM,72.7,14.2,11,29.90,10.0,SSE,18.4,27.6,N/A,,Clear,160,2013-09-26 22:15:00
4:35 PM,72.3,14.7,11,29.91,10.0,SSW,15.0,28.8,N/A,,Clear,200,2013-09-26 22:35:00
4:55 PM,72.5,14.4,11,29.90,10.0,SSW,16.1,23.0,N/A,,Clear,200,2013-09-26 22:55:00
5:15 PM,72.1,15.3,11,29.90,10.0,South,10.4,25.3,N/A,,Clear,180,2013-09-26 23:15:00
5:35 PM,70.9,16.2,12,29.90,10.0,South,11.5,23.0,N/A,,Clear,170,2013-09-26 23:35:00
5:55 PM,70.7,16.0,12,29.91,10.0,South,10.4,23.0,N/A,,Clear,190,2013-09-26 23:55:00
6:15 PM,69.8,15.6,13,29.91,10.0,South,6.9,21.9,N/A,,Clear,190,2013-09-27 00:15:00
6:35 PM,68.5,14.9,13,29.92,10.0,South,10.4,18.4,N/A,,Clear,180,2013-09-27 00:35:00
6:55 PM,66.0,17.4,15,29.93,10.0,SW,6.9,-,N/A,,Clear,220,2013-09-27 00:55:00
7:15 PM,64.6,15.8,15,29.94,10.0,SW,6.9,-,N/A,,Clear,220,2013-09-27 01:15:00
7:35 PM,63.7,16.5,16,29.95,10.0,SW,5.8,-,N/A,,Clear,220,2013-09-27 01:35:00
7:55 PM,63.0,17.8,17,29.95,10.0,SW,8.1,-,N/A,,Clear,230,2013-09-27 01:55:00
8:15 PM,63.5,16.9,17,29.96,10.0,SW,10.4,-,N/A,,Clear,230,2013-09-27 02:15:00
8:35 PM,62.8,18.1,18,29.97,10.0,SSW,6.9,-,N/A,,Clear,200,2013-09-27 02:35:00
8:55 PM,59.5,21.0,23,29.96,10.0,WSW,5.8,-,N/A,,Clear,250,2013-09-27 02:55:00
9:15 PM,53.8,24.8,33,29.96,10.0,WSW,6.9,-,N/A,,Clear,250,2013-09-27 03:15:00
9:35 PM,53.1,25.5,34,29.96,10.0,WSW,9.2,-,N/A,,Clear,250,2013-09-27 03:35:00
9:55 PM,53.8,23.9,31,29.96,10.0,West,10.4,-,N/A,,Clear,260,2013-09-27 03:55:00
10:15 PM,52.7,24.3,33,29.96,10.0,West,10.4,-,N/A,,Clear,260,2013-09-27 04:15:00
10:35 PM,51.4,25.0,36,29.97,10.0,West,8.1,-,N/A,,Clear,260,2013-09-27 04:35:00
10:55 PM,51.1,25.9,38,29.97,10.0,West,6.9,-,N/A,,Clear,260,2013-09-27 04:55:00
11:15 PM,53.6,22.5,30,29.97,10.0,WSW,3.5,-,N/A,,Clear,240,2013-09-27 05:15:00
11:35 PM,52.7,23.7,32,29.97,10.0,SSE,4.6,-,N/A,,Clear,150,2013-09-27 05:35:00
11:55 PM,55.4,23.0,29,29.97,10.0,Calm,Calm,-,N/A,,Clear,0,2013-09-27 05:55:00